Voltar ao catálogo

STARLINK-11185

AtivoComunicaçõesVLEO
NORAD 62588·PAYLOAD·🇺🇸 United States

Lançado Jan 13, 2025 de Cape Canaveral Space Force Station

Loading…

Próximas Passagens (próximas 24 horas)

TLE

AtualizadoSource: CelesTrak SupGP

Época: Sep 14, 2026, 20:53 UTC

1 62588C 25008B   26257.87062500  .00067641  00000+0  52554-3 0  2578
2 62588  43.0010  65.6039 0001706 282.6386 314.0276 15.70796652    19

Acompanhe STARLINK-11185 em tempo real com AllMySat

Download on the App Store